EW1549 Weather Reports


time (UTC)temp
C
wind
direction
speed
KPH
gust
KPH
rain 1hr
cm
rain 24hr
cm
rain mn
cm
humidity
%
barometer
mb
20260906064530 -17 221 4.8 11.3 0.00 0.00 0.00 1018.8
20260906063028 -17 229 4.8 8.0 0.00 0.00 0.00 1018.7
20260906061524 -17 284 0.0 0.0 0.00 0.00 0.00 1018.6
20260906060017 -17 284 0.0 0.0 0.00 0.00 0.00 1018.6
20260906054513 -17 282 0.0 6.4 0.00 0.00 0.00 1018.7
20260906053008 -17 229 6.4 9.7 0.00 0.00 0.00 1018.8
20260906051505 -17 235 4.8 16.1 0.00 0.00 0.00 1018.9
20260906050002 -17 231 8.0 16.1 0.00 0.00 0.00 1018.7
20260906044557 -17 248 6.4 12.9 0.00 0.00 0.00 1018.4
20260906043059 -17 228 4.8 9.7 0.00 0.00 0.00 1018.4
20260906041552 -17 117 0.0 0.0 0.00 0.00 0.00 1018.2
20260906040043 -17 117 0.0 0.0 0.00 0.00 0.00 1018.2
20260906034537 -17 162 0.0 6.4 0.00 0.00 0.00 1018.1
20260906033036 -17 245 0.0 0.0 0.00 0.00 0.00 1018.3
20260906031528 -17 245 0.0 0.0 0.00 0.00 0.00 1018.5
20260906030024 -17 245 0.0 0.0 0.00 0.00 0.00 1018.8
20260906024520 -17 246 3.2 9.7 0.00 0.00 0.00 1018.8
20260906023016 -17 219 9.7 14.5 0.00 0.00 0.00 1018.6
20260906021511 -17 254 6.4 9.7 0.00 0.00 0.00 1018.4
20260906020010 -17 243 6.4 9.7 0.00 0.00 0.00 1018.4
20260906014504 -17 213 0.0 0.0 0.00 0.00 0.00 1018.5
20260906013109 -17 213 0.0 6.4 0.00 0.00 0.00 1018.5
20260906011601 -17 213 0.0 6.4 0.00 0.00 0.00 1018.6
20260906010046 -17 213 0.0 0.0 0.00 0.00 0.00 1018.7
20260906004542 -17 213 3.2 6.4 0.00 0.00 0.00 1018.8
20260906003030 -17 213 0.0 6.4 0.00 0.00 0.00 1018.9
20260906001526 -17 213 4.8 9.7 0.00 0.00 0.00 1019.1
20260906000036 -17 216 3.2 12.9 0.00 0.00 0.00 1019.2
20260905234517 -17 223 0.0 0.0 0.00 0.00 0.00 1019.4
20260905233012 -17 223 3.2 11.3 0.00 0.00 0.00 1019.4
20260905231508 -17 212 8.0 16.1 0.00 0.00 0.00 1019.6
20260905230003 -17 203 11.3 19.3 0.00 0.00 0.00 1019.6
20260905224559 -17 230 9.7 16.1 0.00 0.00 0.00 1019.6
20260905223055 -17 225 11.3 12.9 0.00 0.00 0.00 1019.5
20260905221552 -17 232 8.0 12.9 0.00 0.00 0.00 1019.6
20260905220045 -17 228 4.8 11.3 0.00 0.00 0.00 1019.5
20260905214544 -17 215 9.7 14.5 0.00 0.00 0.00 1019.3
20260905213044 -17 229 6.4 9.7 0.00 0.00 0.00 1019.3
20260905211550 -17 236 4.8 8.0 0.00 0.00 0.00 1019.1
20260905210047 -17 246 3.2 9.7 0.00 0.00 0.00 1018.9
20260905204546 -17 229 4.8 11.3 0.00 0.00 0.00 1018.8
20260905203043 -17 227 6.4 9.7 0.00 0.00 0.00 1018.7
20260905201541 -17 222 4.8 12.9 0.00 0.00 0.00 1018.7
20260905200041 -17 219 8.0 14.5 0.00 0.00 0.00 1018.8
20260905194535 -17 225 0.0 9.7 0.00 0.00 0.00 1018.8
20260905193030 -17 238 4.8 12.9 0.00 0.00 0.00 1018.6
20260905191600 -17 245 4.8 9.7 0.00 0.00 0.00 1018.4
20260905190053 -17 256 6.4 12.9 0.00 0.00 0.00 1018.0
20260905184608 -17 254 4.8 9.7 0.00 0.00 0.00 1017.9
20260905183048 -17 53 6.4 12.9 0.00 0.00 0.00 1017.7
20260905181546 -17 296 4.8 12.9 0.00 0.00 0.00 1017.4
20260905180035 -17 347 6.4 9.7 0.00 0.00 0.00 1017.3
20260905174529 -17 21 6.4 16.1 0.00 0.00 0.00 1017.2
20260905173020 -17 354 4.8 16.1 0.00 0.00 0.00 1017.2
20260905171516 -17 20 11.3 17.7 0.00 0.00 0.00 1017.2
20260905170012 -17 345 11.3 19.3 0.00 0.00 0.00 1017.4
20260905164507 -17 17 0.0 17.7 0.00 0.00 0.00 1017.5
20260905163004 -17 329 4.8 16.1 0.00 0.00 0.00 1017.5
20260905161558 -17 36 14.5 22.5 0.00 0.00 0.00 1017.4
20260905160054 -17 41 12.9 20.9 0.00 0.00 0.00 1017.5
20260905154610 -17 210 1.6 17.7 0.00 0.00 0.00 1017.8
20260905153045 -17 304 8.0 14.5 0.00 0.00 0.00 1017.6
20260905151540 -17 313 4.8 19.3 0.00 0.00 0.00 1017.5
20260905150038 -17 6 11.3 17.7 0.00 0.00 0.00 1017.4
20260905144539 -17 56 8.0 19.3 0.00 0.00 0.00 1017.6
20260905143037 -17 27 8.0 16.1 0.00 0.00 0.00 1017.4
20260905141536 -17 23 14.5 20.9 0.00 0.00 0.00 1017.4
20260905140039 -17 46 9.7 17.7 0.00 0.00 0.00 1017.5
20260905134535 -17 27 6.4 17.7 0.00 0.00 0.00 1017.4
20260905133043 -17 17 4.8 12.9 0.00 0.00 0.00 1017.6
20260905131634 -17 352 6.4 17.7 0.00 0.00 0.00 1017.7
20260905130035 -17 58 9.7 19.3 0.00 0.00 0.00 1018.0
20260905124535 -17 10 16.1 20.9 0.00 0.00 0.00 1018.3
20260905123031 -17 36 9.7 17.7 0.00 0.00 0.00 1018.4
20260905121531 -17 22 6.4 16.1 0.00 0.00 0.00 1018.6
20260905120028 -17 354 14.5 22.5 0.00 0.00 0.00 1018.6
20260905114526 -17 36 3.2 9.7 0.00 0.00 0.00 1018.7
20260905113021 -17 55 0.0 11.3 0.00 0.00 0.00 1018.7
20260905111528 -17 10 4.8 12.9 0.00 0.00 0.00 1018.8
20260905110029 -17 358 0.0 8.0 0.00 0.00 0.00 1018.8
20260905104508 -17 355 0.0 6.4 0.00 0.00 0.00 1018.8
20260905103009 -17 353 0.0 4.8 0.00 0.00 0.00 1018.6
20260905101605 -17 353 6.4 9.7 0.00 0.00 0.00 1018.7
20260905100058 -17 225 0.0 0.0 0.00 0.00 0.00 1018.7
20260905094550 -17 225 0.0 0.0 0.00 0.00 0.00 1018.6
20260905093046 -17 225 1.6 6.4 0.00 0.00 0.00 1018.5
20260905091541 -17 225 0.0 0.0 0.00 0.00 0.00 1018.7
20260905090039 -17 225 0.0 3.2 0.00 0.00 0.00 1018.7
20260905084538 -17 225 0.0 0.0 0.00 0.00 0.00 1018.9
20260905083032 -17 225 0.0 1.6 0.00 0.00 0.00 1019.0
20260905081524 -17 225 0.0 1.6 0.00 0.00 0.00 1018.7
20260905080031 -17 226 0.0 1.6 0.00 0.00 0.00 1018.3
20260905074519 -17 226 0.0 1.6 0.00 0.00 0.00 1018.2
20260905073010 -17 226 0.0 1.6 0.00 0.00 0.00 1017.8
20260905071511 -17 226 0.0 1.6 0.00 0.00 0.00 1017.6
20260905070003 -17 226 0.0 1.6 0.00 0.00 0.00 1017.3